Date String (YYYY-MM-DD hh:mm:ss) UTC,Instrument flags,absolute air pressure of the measurement (hPa),sample flow rate (lpm),inlet stack bypass flow (lpm),air temperature of the measurement (°C),ambient temperature measured by the external sensor (°C),aerosol sample conditioner tube jacket temperature (°C),OPC LED temperature (°C),internal box temperature (°C),relative humidity of the measurement (%),span deviation,mass concentration of particles derived from Lorenz-Mie calculation of OPC scattering (μg/m³),mass concentration of particles derived from Lorenz-Mie calculation of OPC scattering (μg/m³),mass concentration of particles derived from Lorenz-Mie calculation of OPC scattering (μg/m³)
DateTimeUTC,F1_M11,P_M11,Q1_M11,Q2_M11,T1_M11,T2_M11,T3_M11,T4_M11,T5_M11,U1_M11,ZSPAN_M11,X2_M11,X0_M11,X1_M11
2023-10-09 11:00:00,SystemResetWarning,0830.1,5.00,000.00,028.7,027.2,000.0,037.2,030.3,12.2,0000.0,0003.09,0008.10,0002.25
2023-10-09 11:01:00,SystemResetWarning,0830.1,4.99,000.00,028.7,027.2,000.0,037.2,030.3,12.2,0000.0,0003.09,0008.13,0002.26
2023-10-09 11:02:00,SystemResetWarning,0830.1,5.00,000.00,028.7,027.2,000.0,037.2,030.3,12.2,0000.0,0003.07,0008.04,0002.27
2023-10-09 11:03:00,SystemResetWarning,0830.1,5.00,000.00,028.7,027.2,000.0,037.2,030.3,12.2,0000.0,0003.07,0008.11,0002.27
2023-10-09 11:04:00,SystemResetWarning,0830.1,5.00,000.00,028.7,027.2,000.0,037.2,030.3,12.2,0000.0,0003.04,0008.31,0002.28
2023-10-09 11:05:00,SystemResetWarning,0830.1,5.00,000.00,028.7,027.2,000.0,037.2,030.3,12.2,0000.0,0003.05,0008.29,0002.28
2023-10-09 11:06:00,SystemResetWarning,0830.1,4.99,000.00,028.7,027.2,000.0,037.2,030.3,12.2,0000.0,0003.10,0008.39,0002.29
2023-10-09 11:07:00,SystemResetWarning,0830.1,5.00,000.00,028.7,027.2,000.0,037.2,030.3,12.2,0000.0,0003.14,0008.31,0002.30
2023-10-09 11:08:00,SystemResetWarning,0830.0,5.00,000.00,028.7,027.2,000.0,037.2,030.3,12.2,0000.0,0003.14,0008.16,0002.29
2023-10-09 11:09:00,SystemResetWarning,0830.0,5.00,000.00,028.7,027.2,000.0,037.2,030.3,12.2,0000.0,0003.16,0008.17,0002.30
2023-10-09 11:10:00,SystemResetWarning,0830.0,5.00,000.00,028.7,027.2,000.0,037.2,030.3,12.2,0000.0,0003.13,0007.90,0002.29
2023-10-09 11:11:00,SystemResetWarning,0830.0,5.00,000.00,028.7,027.1,000.0,037.2,030.3,12.2,0000.0,0003.13,0008.08,0002.29
2023-10-09 11:12:00,SystemResetWarning,0830.0,5.00,000.00,028.7,027.1,000.0,037.2,030.3,12.1,0000.0,0003.11,0007.82,0002.28
2023-10-09 11:13:00,SystemResetWarning,0830.1,5.00,000.00,028.7,027.1,000.0,037.2,030.3,12.2,0000.0,0003.13,0007.99,0002.28
2023-10-09 11:14:00,SystemResetWarning,0830.1,5.00,000.00,028.7,027.1,000.0,037.2,030.3,12.2,0000.0,0003.13,0007.94,0002.28
2023-10-09 11:15:00,SystemResetWarning,0830.1,5.00,000.00,028.7,027.1,000.0,037.2,030.3,12.2,0000.0,0003.12,0007.85,0002.29
2023-10-09 11:16:00,SystemResetWarning,0830.1,5.00,000.00,028.7,027.1,000.0,037.2,030.3,12.2,0000.0,0003.09,0007.73,0002.27
2023-10-09 11:17:00,SystemResetWarning,0830.0,5.00,000.00,028.7,027.1,000.0,037.2,030.3,12.2,0000.0,0003.09,0007.47,0002.25
2023-10-09 11:18:00,SystemResetWarning,0830.0,5.00,000.00,028.7,027.1,000.0,037.2,030.2,12.2,0000.0,0003.00,0007.17,0002.24
2023-10-09 11:19:00,SystemResetWarning,0830.0,5.00,000.00,028.7,027.1,000.0,037.2,030.3,12.2,0000.0,0002.96,0007.17,0002.23
2023-10-09 11:20:00,SystemResetWarning,0830.1,5.00,000.00,028.7,027.1,000.0,037.2,030.2,12.2,0000.0,0002.94,0007.21,0002.23
2023-10-09 11:21:00,SystemResetWarning,0830.0,5.00,000.00,028.7,027.1,000.0,037.1,030.2,12.2,0000.0,0002.94,0007.08,0002.23
2023-10-09 11:22:00,SystemResetWarning,0830.0,5.00,000.00,028.6,027.1,000.0,037.2,030.2,12.2,0000.0,0002.89,0005.77,0002.23
2023-10-09 11:23:00,SystemResetWarning,0830.0,5.00,000.00,028.6,027.1,000.0,037.1,030.2,12.2,0000.0,0002.89,0005.70,0002.24
2023-10-09 11:24:00,SystemResetWarning,0830.1,5.00,000.00,028.6,027.1,000.0,037.1,030.2,12.2,0000.0,0002.88,0005.36,0002.23
2023-10-09 11:25:00,SystemResetWarning,0830.0,5.00,000.00,028.6,027.1,000.0,037.1,030.2,12.2,0000.0,0002.89,0005.50,0002.25
2023-10-09 11:26:00,SystemResetWarning,0830.0,5.00,000.00,028.6,027.0,000.0,037.1,030.2,12.2,0000.0,0002.92,0005.83,0002.25
2023-10-09 11:27:00,SystemResetWarning,0830.0,5.00,000.00,028.6,027.0,000.0,037.1,030.2,12.2,0000.0,0002.99,0006.19,0002.26
2023-10-09 11:28:00,SystemResetWarning,0830.0,5.00,000.00,028.6,027.0,000.0,037.1,030.2,12.2,0000.0,0003.01,0006.05,0002.28
2023-10-09 11:29:00,SystemResetWarning,0830.0,5.01,000.00,028.6,027.0,000.0,037.1,030.2,12.2,0000.0,0003.06,0006.74,0002.29
2023-10-09 11:30:00,SystemResetWarning,0830.1,5.01,000.00,028.6,027.0,000.0,037.1,030.2,12.2,0000.0,0003.06,0006.66,0002.28
2023-10-09 11:31:00,SystemResetWarning,0830.0,5.00,000.00,028.6,027.0,000.0,037.1,030.2,12.2,0000.0,0003.05,0006.50,0002.28
2023-10-09 11:32:00,SystemResetWarning,0830.0,5.00,000.00,028.6,027.0,000.0,037.1,030.2,12.2,0000.0,0003.06,0007.39,0002.30
2023-10-09 11:33:00,SystemResetWarning,0830.0,4.99,000.00,028.6,027.0,000.0,037.1,030.2,12.3,0000.0,0003.10,0007.46,0002.31
2023-10-09 11:34:00,SystemResetWarning,0830.0,4.99,000.00,028.6,027.0,000.0,037.1,030.2,12.2,0000.0,0003.10,0007.48,0002.32
2023-10-09 11:35:00,SystemResetWarning,0830.0,5.00,000.00,028.6,027.0,000.0,037.1,030.2,12.2,0000.0,0003.12,0007.55,0002.31
2023-10-09 11:36:00,SystemResetWarning,0830.0,5.01,000.00,028.6,027.0,000.0,037.1,030.2,12.1,0000.0,0003.10,0007.54,0002.31
2023-10-09 11:37:00,SystemResetWarning,0830.0,5.01,000.00,028.6,027.0,000.0,037.1,030.2,12.1,0000.0,0003.08,0007.98,0002.30
2023-10-09 11:38:00,SystemResetWarning,0830.0,5.01,000.00,028.6,027.0,000.0,037.1,030.2,12.1,0000.0,0003.02,0007.66,0002.33
2023-10-09 11:39:00,SystemResetWarning,0830.0,5.01,000.00,028.6,027.0,000.0,037.1,030.1,12.1,0000.0,0002.98,0008.25,0002.33
2023-10-09 11:40:00,SystemResetWarning,0830.0,4.99,000.00,028.6,027.0,000.0,037.1,030.2,12.1,0000.0,0002.91,0008.03,0002.32
2023-10-09 11:41:00,SystemResetWarning,0830.0,5.00,000.00,028.6,027.0,000.0,037.1,030.2,12.0,0000.0,0002.94,0007.96,0002.33
2023-10-09 11:42:00,SystemResetWarning,0830.0,5.00,000.00,028.6,027.0,000.0,037.0,030.1,12.1,0000.0,0002.99,0008.01,0002.35
2023-10-09 11:43:00,SystemResetWarning,0830.0,4.99,000.00,028.6,027.0,000.0,037.0,030.1,12.1,0000.0,0002.99,0008.04,0002.35
2023-10-09 11:44:00,SystemResetWarning,0830.0,5.00,000.00,028.6,027.0,000.0,037.0,030.1,12.3,0000.0,0003.00,0008.09,0002.36
2023-10-09 11:45:00,SystemResetWarning,0830.0,5.00,000.00,028.6,027.0,000.0,037.0,030.1,12.2,0000.0,0003.02,0008.59,0002.36
2023-10-09 11:46:00,SystemResetWarning,0830.0,5.01,000.00,028.5,027.0,000.0,037.0,030.1,12.1,0000.0,0003.01,0008.79,0002.37
2023-10-09 11:47:00,SystemResetWarning,0830.0,5.00,000.00,028.5,027.0,000.0,037.0,030.1,12.1,0000.0,0003.09,0009.20,0002.39
2023-10-09 11:48:00,SystemResetWarning,0830.0,4.99,000.00,028.5,027.0,000.0,037.0,030.1,12.1,0000.0,0003.12,0008.93,0002.39
2023-10-09 11:49:00,SystemResetWarning,0830.0,4.99,000.00,028.5,027.0,000.0,037.0,030.1,12.1,0000.0,0003.12,0009.30,0002.37
2023-10-09 11:50:00,SystemResetWarning,0829.9,5.00,000.00,028.5,027.0,000.0,037.0,030.1,12.1,0000.0,0003.15,0008.89,0002.39
2023-10-09 11:51:00,SystemResetWarning,0829.9,5.00,000.00,028.5,027.0,000.0,037.0,030.1,12.1,0000.0,0003.17,0008.99,0002.40
2023-10-09 11:52:00,SystemResetWarning,0829.9,5.00,000.00,028.5,027.0,000.0,037.0,030.1,12.1,0000.0,0003.15,0009.42,0002.40
2023-10-09 11:53:00,SystemResetWarning,0829.9,5.00,000.00,028.5,027.0,000.0,037.0,030.1,12.0,0000.0,0003.15,0009.65,0002.40
2023-10-09 11:54:00,SystemResetWarning,0830.0,4.99,000.00,028.5,027.0,000.0,037.0,030.1,12.0,0000.0,0003.17,0009.71,0002.41
2023-10-09 11:55:00,SystemResetWarning,0830.0,5.00,000.00,028.5,027.0,000.0,037.0,030.1,12.1,0000.0,0003.18,0009.57,0002.42
2023-10-09 11:56:00,SystemResetWarning,0830.0,5.00,000.00,028.5,027.0,000.0,037.0,030.1,12.1,0000.0,0003.21,0009.32,0002.43
2023-10-09 11:57:00,SystemResetWarning,0830.0,5.01,000.00,028.5,026.9,000.0,037.0,030.1,12.1,0000.0,0003.21,0009.42,0002.44
2023-10-09 11:58:00,SystemResetWarning,0830.0,5.00,000.00,028.5,026.9,000.0,037.0,030.1,12.1,0000.0,0003.19,0009.04,0002.44
2023-10-09 11:59:00,SystemResetWarning,0830.0,5.00,000.00,028.5,026.9,000.0,037.0,030.1,12.1,0000.0,0003.17,0008.70,0002.44
